{"data":{"norad_id":50818,"intl_designator":"2022-001R","name":"STARLINK-3336","alt_names":[],"object_type":"PAYLOAD","status":"ACTIVE","operator":null,"country":"US","launch_date":"2022-01-06","launch_site_code":"AFETR","launch_vehicle":null,"mission":null,"orbit_class":"UNKNOWN","rcs_meters":null,"size_class":null,"mass_kg":null,"dimensions":null,"purposes":["comms"],"wikipedia_slug":null,"has_3d_model":false,"image_url":null,"decayed_at":null,"tle_current":{"epoch":"2026-05-25T03:16:25.671936Z","epoch_age_seconds":73335,"freshness":"FRESH","line1":"1 50818U 22001R   26145.13640824 -.00000827  00000+0 -33903-4 0  9993","line2":"2 50818  53.2131 185.9384 0001024  70.8575 289.2528 15.08837685241943","mean_motion":15.08837685,"eccentricity":0.0001024,"inclination_deg":53.2131,"raan_deg":185.9384,"arg_perigee_deg":70.8575,"mean_anomaly_deg":289.2528,"bstar":-3.3903e-5,"rev_number":24194,"period_min":95.437701106995,"perigee_km":539.04207332561,"apogee_km":540.45885667844,"semimajor_km":6917.887465002,"source":"CELESTRAK","updated_at":"2026-05-25T13:38:16.876891Z"}}}